When you browse on this site, cookies collect data to enhance your experience and personalize the content and advertising you see.
Visit our Privacy Policy to learn more. By continuing to use the site, you agree to this use of cookies and data.
  • En España
  • Lista de países
  • Para 7 días
  • Temperatura del agua
  • El tiempo en el mapa
  • Informadores
  • user-avatar
    Iniciar sesión

    Tiempo cada hora Makoshyne

    Hoy, 14 Octubre, Lunes

    Tiempo Temperatura Precipitaciones Viento Presión Humedad
    00:00 +14°C° 0 mm 2 mps 754 mmHg 81%
    01:00 +13°C° 0 mm 2 mps 755 mmHg 82%
    02:00 +13°C° 0 mm 2 mps 755 mmHg 87%
    03:00 +13°C° 0 mm 2 mps 755 mmHg 88%
    04:00 +13°C° 0 mm 2 mps 754 mmHg 88%
    05:00 +13°C° 0 mm 1 mps 754 mmHg 89%
    06:00 +13°C° 0 mm 2 mps 755 mmHg 86%
    07:00 +14°C° 0 mm 2 mps 755 mmHg 83%
    08:00 +14°C° 0 mm 3 mps 755 mmHg 80%
    09:00 +17°C° 0 mm 3 mps 755 mmHg 73%
    10:00 +18°C° 0 mm 4 mps 755 mmHg 65%
    11:00 +20°C° 0 mm 4 mps 755 mmHg 58%
    12:00 +21°C° 0 mm 4 mps 754 mmHg 55%
    13:00 +22°C° 0 mm 4 mps 754 mmHg 51%
    14:00 +22°C° 0 mm 5 mps 754 mmHg 47%
    15:00 +21°C° 0 mm 4 mps 754 mmHg 50%
    16:00 +19°C° 0 mm 4 mps 753 mmHg 53%
    17:00 +18°C° 0 mm 3 mps 753 mmHg 56%
    18:00 +17°C° 0 mm 3 mps 753 mmHg 56%
    19:00 +16°C° 0 mm 3 mps 753 mmHg 56%
    20:00 +14°C° 0 mm 4 mps 753 mmHg 57%
    21:00 +14°C° 0 mm 3 mps 753 mmHg 58%
    22:00 +13°C° 0 mm 3 mps 753 mmHg 60%
    23:00 +13°C° 0 mm 3 mps 753 mmHg 61%

    Mañana, 15 Octubre, Martes

    Tiempo Temperatura Precipitaciones Viento Presión Humedad
    00:00 +13°C° 0 mm 3 mps 753 mmHg 63%
    01:00 +12°C° 0 mm 3 mps 753 mmHg 64%
    02:00 +12°C° 0 mm 3 mps 753 mmHg 66%
    03:00 +12°C° 0 mm 3 mps 753 mmHg 69%
    04:00 +11°C° 0 mm 3 mps 753 mmHg 72%
    05:00 +12°C° 0 mm 2 mps 753 mmHg 74%
    06:00 +13°C° 0 mm 2 mps 753 mmHg 75%
    07:00 +13°C° 0 mm 2 mps 754 mmHg 75%
    08:00 +14°C° 0 mm 1 mps 754 mmHg 75%
    09:00 +16°C° 0 mm 1 mps 754 mmHg 71%
    10:00 +19°C° 0 mm 1 mps 754 mmHg 67%
    11:00 +20°C° 0 mm 1 mps 754 mmHg 63%
    12:00 +21°C° 0 mm 1 mps 754 mmHg 60%
    13:00 +22°C° 0 mm 1 mps 754 mmHg 57%
    14:00 +23°C° 0 mm 1 mps 754 mmHg 54%
    15:00 +21°C° 0 mm 1 mps 754 mmHg 59%
    16:00 +20°C° 0 mm 1 mps 754 mmHg 65%
    17:00 +18°C° 0 mm 1 mps 754 mmHg 70%
    18:00 +16°C° 0 mm 1 mps 754 mmHg 71%
    19:00 +16°C° 0 mm 2 mps 755 mmHg 72%
    20:00 +15°C° 0 mm 2 mps 755 mmHg 74%
    21:00 +13°C° 0 mm 3 mps 755 mmHg 75%
    22:00 +13°C° 0 mm 3 mps 755 mmHg 76%
    23:00 +12°C° 0 mm 3 mps 755 mmHg 78%

    Pasado mañana, 16 Octubre, Miércoles

    Tiempo Temperatura Precipitaciones Viento Presión Humedad
    00:00 +12°C° 0 mm 3 mps 755 mmHg 80%
    01:00 +12°C° 0 mm 3 mps 755 mmHg 83%
    02:00 +11°C° 0 mm 3 mps 755 mmHg 85%
    03:00 +11°C° 0 mm 3 mps 755 mmHg 87%
    04:00 +11°C° 0 mm 3 mps 755 mmHg 90%
    05:00 +11°C° 0 mm 3 mps 755 mmHg 92%
    06:00 +11°C° 0 mm 3 mps 755 mmHg 89%
    07:00 +12°C° 0 mm 3 mps 755 mmHg 87%
    08:00 +13°C° 0 mm 4 mps 755 mmHg 84%
    09:00 +15°C° 0 mm 4 mps 755 mmHg 77%
    10:00 +17°C° 0 mm 4 mps 755 mmHg 71%
    11:00 +19°C° 0 mm 4 mps 755 mmHg 64%
    12:00 +20°C° 0 mm 4 mps 755 mmHg 60%
    13:00 +20°C° 0 mm 4 mps 755 mmHg 57%
    14:00 +21°C° 0 mm 4 mps 755 mmHg 53%
    15:00 +20°C° 0 mm 4 mps 754 mmHg 58%
    16:00 +18°C° 0 mm 4 mps 754 mmHg 64%
    17:00 +17°C° 0 mm 3 mps 754 mmHg 69%
    18:00 +16°C° 0 mm 3 mps 754 mmHg 71%
    19:00 +16°C° 0 mm 3 mps 754 mmHg 74%
    20:00 +14°C° 0 mm 4 mps 754 mmHg 76%
    21:00 +13°C° 0 mm 3 mps 754 mmHg 76%
    22:00 +13°C° 0 mm 3 mps 754 mmHg 77%
    23:00 +12°C° 0 mm 3 mps 753 mmHg 77%

    17 Octubre, Jueves

    Tiempo Temperatura Precipitaciones Viento Presión Humedad
    00:00 +12°C° 0 mm 3 mps 754 mmHg 78%
    01:00 +12°C° 0 mm 3 mps 754 mmHg 78%
    02:00 +11°C° 0 mm 3 mps 754 mmHg 79%
    03:00 +11°C° 0 mm 3 mps 753 mmHg 78%
    04:00 +11°C° 0 mm 3 mps 753 mmHg 77%
    05:00 +10°C° 0 mm 2 mps 753 mmHg 76%
    06:00 +12°C° 0 mm 2 mps 753 mmHg 72%
    07:00 +12°C° 0 mm 2 mps 753 mmHg 67%
    08:00 +13°C° 0 mm 2 mps 753 mmHg 63%
    09:00 +14°C° 0 mm 3 mps 753 mmHg 58%
    10:00 +17°C° 0 mm 3 mps 753 mmHg 53%
    11:00 +19°C° 0 mm 3 mps 753 mmHg 48%
    12:00 +19°C° 0 mm 3 mps 753 mmHg 48%
    13:00 +20°C° 0 mm 3 mps 753 mmHg 48%
    14:00 +20°C° 0 mm 3 mps 753 mmHg 47%
    15:00 +19°C° 0 mm 3 mps 752 mmHg 53%
    16:00 +18°C° 0 mm 2 mps 752 mmHg 59%
    17:00 +16°C° 0 mm 2 mps 752 mmHg 65%
    18:00 +16°C° 0 mm 2 mps 752 mmHg 68%
    19:00 +15°C° 0 mm 2 mps 753 mmHg 72%
    20:00 +14°C° 0 mm 2 mps 753 mmHg 75%
    21:00 +14°C° 0 mm 2 mps 753 mmHg 79%
    22:00 +14°C° 0 mm 2 mps 753 mmHg 82%
    23:00 +13°C° 0 mm 2 mps 753 mmHg 86%

    18 Octubre, Viernes

    Tiempo Temperatura Precipitaciones Viento Presión Humedad
    00:00 +13°C° 0 mm 2 mps 753 mmHg 84%
    01:00 +12°C° 0 mm 2 mps 754 mmHg 82%
    02:00 +12°C° 0 mm 1 mps 754 mmHg 80%
    03:00 +11°C° 0 mm 1 mps 754 mmHg 80%
    04:00 +11°C° 0 mm 1 mps 754 mmHg 79%
    05:00 +11°C° 0 mm 1 mps 754 mmHg 79%
    06:00 +11°C° 0 mm 1 mps 754 mmHg 77%
    07:00 +12°C° 0 mm 1 mps 755 mmHg 75%
    08:00 +12°C° 0 mm 1 mps 755 mmHg 73%
    09:00 +14°C° 0 mm 1 mps 755 mmHg 68%
    10:00 +15°C° 0 mm 2 mps 755 mmHg 64%
    11:00 +17°C° 0 mm 2 mps 756 mmHg 59%
    12:00 +17°C° 0 mm 2 mps 755 mmHg 59%
    13:00 +18°C° 0 mm 2 mps 755 mmHg 58%
    14:00 +18°C° 0 mm 2 mps 755 mmHg 57%
    15:00 +17°C° 0 mm 2 mps 755 mmHg 62%
    16:00 +16°C° 0 mm 1 mps 755 mmHg 67%
    17:00 +15°C° 0 mm 1 mps 755 mmHg 72%
    18:00 +14°C° 0 mm 1 mps 756 mmHg 74%
    19:00 +14°C° 0 mm 1 mps 756 mmHg 76%
    20:00 +13°C° 0 mm 1 mps 756 mmHg 78%
    21:00 +13°C° 0 mm 1 mps 756 mmHg 81%
    22:00 +12°C° 0 mm 1 mps 756 mmHg 84%
    23:00 +11°C° 0 mm 1 mps 756 mmHg 87%

    19 Octubre, Sábado

    Tiempo Temperatura Precipitaciones Viento Presión Humedad
    00:00 +11°C° 0 mm 1 mps 757 mmHg 88%
    01:00 +11°C° 0 mm 1 mps 757 mmHg 88%
    02:00 +11°C° 0 mm 1 mps 757 mmHg 89%
    03:00 +11°C° 0 mm 1 mps 757 mmHg 89%
    04:00 +10°C° 0 mm 1 mps 757 mmHg 90%
    05:00 +10°C° 0 mm 1 mps 757 mmHg 90%
    06:00 +11°C° 0 mm 1 mps 757 mmHg 88%
    07:00 +11°C° 0 mm 1 mps 757 mmHg 85%
    08:00 +12°C° 0 mm 1 mps 757 mmHg 82%
    09:00 +13°C° 0 mm 1 mps 758 mmHg 76%
    10:00 +15°C° 0 mm 2 mps 758 mmHg 70%
    11:00 +16°C° 0 mm 2 mps 758 mmHg 63%
    12:00 +17°C° 0 mm 2 mps 758 mmHg 62%
    13:00 +17°C° 0 mm 2 mps 758 mmHg 60%
    14:00 +18°C° 0 mm 2 mps 757 mmHg 59%
    15:00 +17°C° 0 mm 2 mps 757 mmHg 64%
    16:00 +15°C° 0 mm 2 mps 757 mmHg 69%
    17:00 +14°C° 0 mm 2 mps 757 mmHg 74%
    18:00 +13°C° 0 mm 2 mps 757 mmHg 77%
    19:00 +13°C° 0 mm 2 mps 757 mmHg 80%
    20:00 +12°C° 0 mm 2 mps 757 mmHg 83%
    21:00 +12°C° 0 mm 2 mps 757 mmHg 85%
    22:00 +11°C° 0 mm 3 mps 757 mmHg 87%
    23:00 +10°C° 0 mm 3 mps 758 mmHg 89%
    Mostrar más